Notices

What's New in latest Release from April 7th, 2021:

- Updated Glossary, including Speed of Maximum Gust, and Total Hourly Precipitation

- Updated national and regional climate services offices contacts and prices information

- Addition of station inventory lists for 1981-2010, 1971-2000, and 1961-1990 Normals.

If you haven't already, please take our survey and provide feedback about our website: https://eccc.sondage-survey.ca/f/LanguageSelection.aspx?s=442ca660-fcf1-47c0-95a9-59707d6fd709

Hourly Data Report for December 28, 2020

MUSKOKA
ONTARIO
Current Station Operator: NAVCAN

44°58'29.000" N
79°18'12.000" W
281.90 m
6115529
71532
YQA

Download Data

Hourly Data (December 2020)
Hourly Data Report for December 28, 2020
TIME
LST
Temp Definition
°C
Dew Point Definition
°C
Rel Hum Definition
%
Precip. Amount Definition
mm

Wind Dir Definition
10's deg

Wind Spd Definition
km/h
Visibility Definition
km
Stn Press Definition
kPa
Hmdx Definition


Wind Chill Definition


Weather Definition


00:00 -1.8 -2.6 94 474.2 12 17 2.0 97.48   -7 Snow
01:00 -1.4 -2.1 95 428.2 13 21 1.6 97.35   -7 Snow
02:00 -0.8 -1.5 95 252.7 13 22 2.4 97.18   -7 Snow
03:00 -0.1 -0.8 95 440.7 15 24 1.6 97.07   -6 Snow
04:00 0.4 -0.2 96 291.9 15 24 1.6 96.95     Snow
05:00 0.6 0.0 96 271.5 17 22 2.8 96.90     Snow
06:00 0.8 0.4 97 313.1 17 15 8.1 96.88     Rain,Snow
07:00 1.6 1.0 96 LegendMM 17 18 16.1 96.87     Rain
08:00 1.8 1.4 97 333.5 22 18 8.1 96.94     Rain,Fog
09:00 1.1 0.4 95 347.5 25 18 11.3 97.08     Rain
10:00 0.7 -0.3 93 97.0 26 26 11.3 97.20     Rain,Snow
11:00 -0.8 -1.9 92 0.0 27 18 16.1 97.40   -6 LegendNANA
12:00 -1.5 -2.8 91 0.0 26 22 16.1 97.58   -7 LegendNANA
13:00 -2.4 -4.6 85 0.0 29 15 16.1 97.77   -7 LegendNANA
14:00 -2.4 -4.8 84 0.0 30 15 16.1 97.92   -7 Snow
15:00 -2.5 -4.4 87 0.0 28 9 4.0 97.98   -6 Snow
16:00 -2.7 -3.7 93 184.9 29 5 2.0 98.11   -5 Snow
17:00 -3.3 -5.6 84 LegendMM 30 22 14.5 98.26   -10 Snow
18:00 -4.3 -7.1 81 LegendMM 30 18 16.1 98.37   -10 LegendNANA
19:00 -5.5 -8.1 82 LegendMM 33 15 16.1 98.48   -11 LegendNANA
20:00 -6.1 -8.5 83 LegendMM 32 11 16.1 98.57   -11 LegendNANA
21:00 -6.5 -8.3 87 LegendMM 34 11 16.1 98.64   -11 LegendNANA
22:00 -8.9 -10.1 91 LegendMM 35 8 16.1 98.71   -13 LegendNANA
23:00 -8.9 -10.5 88 LegendMM 36 8 16.1 98.73   -13 LegendNANA

Notes on Data Quality.

Legend

  • E = Estimated
  • M = Missing
  • NA = Not Available*
  • [empty] = Indicates an unobserved value
Date modified: